Dewpoint
47 46 45 44 42 39 37 34 28 41 40 29 30 25 22 15 16 17 15 15 14 13 14 12 12 12 14 17 17 11 18 17 11 8 13 17 17 13 18 19 16 21 21 17
45 45 43 41 39 38 37 33 33 38 38 24 26 26 23 17 14 15 15 16 17 17 14 11 14 14 17 15 14 12 17 13 6 -3 4 9 12 13 15 18 24 21 18 15
42 42 40 39 39 41 39 33 28 32 34 30 25 22 14 16 18 17 17 17 15 14 12 15 16 16 17 16 21 23 20 15 6 -8 -7 9 10 12 16 25 20 22 20 22
41 41 40 37 41 42 38 33 27 27 24 25 27 19 16 16 13 15 13 12 14 13 12 14 14 14 14 16 23 17 12 3 15 15 14 15 14 14 24 23 23 21 22 23
41 40 38 39 41 41 33 29 24 29 20 27 26 23 18 16 18 16 14 13 15 14 12 12 12 14 12 11 16 14 16 2 14 14 14 15 16 23 23 23 27 23 23 21
39 39 37 39 41 36 31 32 30 24 26 27 22 21 20 17 17 20 17 15 15 14 14 15 15 15 15 15 13 13 12 12 16 12 16 18 20 20 22 22 25 25 21 26
39 39 39 40 39 38 34 33 29 22 21 23 19 21 19 16 16 16 17 17 14 18 20 20 19 19 18 18 17 15 15 17 17 17 20 11 19 23 22 21 26 27 27 29
39 39 40 40 38 38 35 35 28 25 20 21 23 20 21 20 18 17 16 16 19 21 18 13 11 14 16 22 21 18 17 19 20 17 19 19 24 24 21 21 23 26 26 28
41 40 40 40 37 37 35 35 33 26 21 22 24 18 17 15 14 15 20 23 23 21 19 17 7 7 12 16 23 24 20 24 25 22 17 11 18 23 26 25 19 26 27 27
41 40 40 39 38 38 35 35 36 28 26 29 25 17 16 18 17 18 22 20 19 22 17 15 12 11 19 15 16 21 24 23 21 21 17 19 24 25 26 19 18 27 28 29
41 40 40 38 38 37 35 34 37 29 28 29 30 29 22 19 20 18 23 20 21 20 15 16 18 18 20 19 21 20 17 16 17 20 18 11 26 22 16 24 27 28 29 30
42 42 41 38 37 36 35 30 36 35 29 28 32 29 29 25 23 24 24 22 23 23 21 23 22 21 19 17 12 23 17 19 16 19 14 25 27 25 26 27 28 29 29 31
42 42 41 38 39 37 35 34 34 28 23 22 24 23 27 29 27 27 23 26 29 27 26 22 21 14 20 15 16 19 20 27 23 22 21 27 28 27 28 27 28 31 31 32
42 42 42 40 39 38 36 34 36 29 25 21 22 29 25 29 27 27 28 29 30 29 27 22 20 13 22 18 18 18 18 25 24 24 25 28 29 29 28 27 29 30 32 30
41 42 41 39 39 38 36 37 38 35 21 20 23 26 28 29 27 26 26 25 25 25 23 22 18 23 22 22 22 19 21 15 15 13 21 24 27 29 28 27 30 29 27 26
42 42 41 38 36 32 28 25 29 37 32 19 19 26 27 28 26 25 24 25 25 25 23 22 24 26 21 17 17 20 23 28 23 24 28 27 29 27 28 27 30 28 25 25
42 42 41 37 35 33 26 26 29 37 32 20 18 23 27 27 27 28 26 28 26 25 25 23 23 23 24 21 18 19 27 31 30 30 30 27 25 25 28 27 26 25 23 23
41 42 38 38 37 36 35 39 37 34 28 24 19 23 26 30 24 25 29 27 28 28 26 27 25 24 23 19 21 23 29 29 28 28 27 25 25 23 22 22 22 21 20 20
41 38 35 31 31 33 36 36 32 32 25 21 20 21 21 31 28 28 28 27 23 27 26 25 26 23 21 23 26 28 27 24 20 20 23 22 21 20 19 19 19 18 18 18
37 31 26 24 33 38 35 27 26 24 24 26 20 23 25 28 27 25 25 26 23 20 23 27 24 22 21 19 19 19 20 20 19 19 19 18 19 20 18 17 17 17 16 17
34 28 26 31 37 29 24 22 19 21 17 23 23 23 26 32 23 23 22 22 21 19 20 22 22 21 22 18 18 21 22 20 17 17 15 16 17 17 16 15 16 14 15 16
32 34 36 34 27 21 17 18 21 20 15 22 20 22 26 30 32 26 25 23 23 18 27 23 19 19 20 19 21 18 16 16 15 14 13 13 15 15 15 15 15 15 16 16
32 30 27 23 21 15 11 11 16 18 22 23 24 21 26 30 29 26 24 21 20 26 22 19 18 19 21 21 17 15 15 15 15 14 13 13 13 14 15 13 14 14 13 14
28 24 19 15 16 15 15 14 15 19 22 23 22 21 21 27 23 26 22 22 23 19 17 17 17 19 21 19 18 17 15 14 14 15 14 13 12 11 12 12 12 10 12 12
25 21 13 15 16 20 18 21 22 25 24 24 25 26 26 26 24 25 21 21 16 17 16 18 18 20 20 19 19 16 12 10 9 12 11 10 10 11 11 10 10 11 10 10
23 22 20 21 22 22 24 24 25 28 27 28 27 25 23 21 21 20 18 16 14 16 19 19 21 20 19 19 17 14 12 11 10 10 10 10 11 12 12 10 11 10 10 10
21 21 24 22 21 22 24 25 26 30 27 22 25 22 20 23 19 17 21 18 18 19 20 21 19 19 17 16 15 14 13 12 13 12 12 12 11 10 12 13 11 11 12 12
Wind_Speed
58 57 55 53 51 44 26 12 12 13 11 14 8 11 7 7 10 5 5 4 7 6 6 5 3 7 4 3 7 4 1 4 2 7 10 7 5 3 3 3 4 9 9 14
52 51 50 49 51 34 24 15 9 4 1 14 20 7 8 5 7 6 6 4 4 6 7 6 7 6 3 5 4 6 7 2 3 4 1 2 2 3 1 10 10 6 12 14
38 43 46 49 41 19 11 9 11 5 5 2 22 11 10 8 7 8 7 6 8 10 6 5 8 6 2 2 5 9 5 4 6 8 8 5 9 13 10 6 7 9 12 31
34 35 39 40 34 12 5 4 7 11 21 11 11 10 11 18 8 5 7 4 6 11 6 5 5 4 4 3 8 4 4 4 8 13 17 14 14 11 9 9 12 5 19 27
31 32 30 30 17 9 4 7 13 6 26 16 14 5 10 16 8 7 8 12 12 9 9 7 10 8 3 3 2 4 2 2 3 6 13 8 6 3 7 8 5 9 18 15
28 28 27 19 10 2 5 3 4 12 7 11 11 7 10 14 13 8 8 23 14 13 11 10 11 5 6 7 6 4 3 3 2 4 3 7 1 6 6 4 2 6 7 15
26 23 20 14 5 1 2 2 4 13 8 9 10 8 13 19 7 14 12 14 11 5 11 10 8 3 3 5 7 7 5 4 2 4 6 1 1 7 2 6 4 6 11 18
24 22 18 13 5 8 4 3 7 6 9 10 11 17 19 21 20 16 15 5 9 16 6 4 4 2 2 1 4 11 11 5 2 1 2 2 1 2 3 1 0 11 13 17
22 20 17 10 8 8 11 5 5 10 17 3 3 15 19 24 14 9 7 7 6 6 4 4 4 6 5 5 4 3 9 0 1 2 2 4 3 4 2 5 5 12 15 17
19 19 15 12 14 10 8 11 7 9 11 4 2 7 11 7 10 10 6 6 3 3 3 3 3 3 2 7 9 6 6 5 7 6 4 6 1 10 1 2 4 12 12 16
19 17 15 12 12 15 10 5 10 7 8 5 5 3 6 7 8 11 8 6 1 3 3 3 3 3 3 3 2 3 6 7 5 3 3 6 2 2 1 1 6 7 10 12
19 17 16 14 13 13 8 10 8 11 11 5 2 7 8 6 5 12 3 4 4 4 6 2 4 3 2 4 4 0 4 5 3 7 5 2 3 6 5 0 5 3 8 10
19 18 16 14 13 15 11 6 5 8 9 9 7 7 8 6 7 3 7 1 4 4 2 6 3 3 4 5 4 2 2 3 2 2 1 4 7 5 4 1 2 2 4 7
18 19 18 16 15 15 10 9 6 9 7 7 4 4 5 2 10 12 8 12 9 8 5 5 3 3 2 2 1 2 3 3 4 6 7 1 6 5 3 2 4 3 3 5
21 20 19 18 20 20 19 13 10 7 6 6 6 3 9 6 14 17 16 15 9 5 4 4 3 3 3 1 1 6 6 7 8 10 4 2 1 6 4 6 7 7 5 6
22 21 21 18 14 10 7 5 7 9 5 7 5 1 5 6 13 15 12 9 6 4 4 3 1 1 3 3 3 5 7 6 7 2 6 3 5 5 3 4 5 7 7 7
23 22 20 16 13 11 7 4 3 2 4 5 6 4 4 7 5 4 5 5 4 4 3 2 3 2 5 2 5 4 7 5 4 2 6 2 1 3 4 6 6 7 7 8
25 26 21 18 17 9 8 10 6 6 9 6 5 3 4 3 4 4 2 3 3 3 3 2 3 2 1 5 7 4 4 7 6 5 5 3 9 8 8 7 5 6 7 7
30 26 17 9 9 5 3 8 12 11 6 5 3 7 5 3 3 3 3 2 3 1 3 2 5 4 7 4 2 7 8 4 11 11 11 8 7 5 5 6 8 6 7 7
31 9 7 4 2 7 1 7 5 7 7 5 4 2 5 4 2 2 3 3 2 1 4 4 5 5 5 6 8 8 12 11 8 8 3 2 0 1 3 5 5 6 6 7
4 4 4 2 5 4 5 4 3 2 2 2 2 2 7 1 5 4 1 4 3 1 3 6 4 4 5 8 9 8 9 11 11 10 8 7 6 3 3 5 7 7 8 8
10 15 9 4 4 5 4 2 1 2 2 4 6 5 4 3 2 3 2 3 3 4 7 3 4 2 8 9 8 7 8 10 11 10 9 8 7 7 6 6 7 7 6 8
10 8 4 3 2 3 5 7 1 2 5 7 5 6 5 3 2 4 3 4 6 1 3 4 4 9 10 10 10 9 9 10 10 10 10 9 8 9 7 7 7 5 7 9
5 5 7 4 5 6 6 8 8 5 5 14 11 6 4 3 3 3 4 3 3 1 3 5 5 13 13 11 10 11 8 8 8 8 9 9 9 8 8 8 7 6 8 9
3 4 4 5 1 2 5 4 5 2 7 16 7 5 3 3 3 4 4 4 4 5 5 2 8 15 16 13 10 12 11 11 10 9 10 9 8 7 6 5 6 7 8 10
3 4 5 5 8 7 5 5 5 3 8 5 4 3 3 3 5 4 5 6 7 4 3 5 13 15 13 14 12 12 12 12 11 9 7 6 6 6 4 2 3 4 6 8
4 3 3 5 9 9 7 6 6 3 7 7 4 5 6 4 4 5 6 6 3 7 8 8 12 17 16 15 14 13 12 12 10 7 5 4 3 3 3 3 2 1 2 3
Wind_Direction
141 142 143 141 133 131 124 132 132 176 167 166 182 190 197 140 150 103 109 106 112 140 131 120 131 158 145 132 150 111 124 133 265 273 289 247 186 139 98 9 293 252 265 292
132 133 133 133 136 141 130 124 93 86 180 175 183 178 170 139 135 125 123 118 126 125 134 124 137 114 69 120 126 149 165 101 332 354 21 40 260 285 335 313 260 262 318 298
108 121 129 135 142 116 107 121 129 126 202 195 175 159 142 115 72 99 111 114 111 112 108 79 150 127 159 112 119 115 126 150 187 226 260 271 289 302 331 329 288 323 283 316
119 126 133 145 148 124 101 124 161 151 185 206 178 130 136 134 142 103 124 97 154 133 129 113 134 125 134 61 140 84 100 219 223 244 260 264 271 288 316 316 276 307 315 317
127 130 136 155 149 150 108 117 149 93 150 159 138 137 162 147 104 153 149 149 135 133 138 169 174 148 171 160 93 102 85 221 211 276 260 255 271 226 304 305 329 308 318 315
128 129 144 160 151 97 91 194 66 104 135 140 156 133 143 138 138 47 141 136 126 118 137 124 140 150 168 158 147 137 159 185 203 270 297 322 329 209 238 267 12 307 326 316
127 133 141 142 108 181 77 87 158 128 125 149 133 128 142 152 124 127 122 112 109 126 114 91 80 96 223 205 206 171 155 189 205 281 347 241 154 118 95 321 104 5 331 331
131 134 133 114 64 168 132 194 89 103 109 110 130 138 118 101 96 99 109 72 126 138 104 97 107 58 103 64 202 199 193 168 200 274 304 275 197 192 343 4 41 9 334 333
135 136 139 133 88 89 74 47 87 96 126 103 99 118 134 123 114 86 87 60 86 83 90 102 151 174 150 172 138 119 172 126 261 187 245 256 179 140 194 197 236 4 341 332
130 126 121 93 74 83 104 47 41 90 96 37 63 118 131 115 99 114 123 138 88 50 115 116 150 155 168 168 174 177 141 176 218 211 228 277 271 320 110 188 309 340 334 324
129 125 119 100 66 54 69 66 28 118 89 46 41 87 119 112 124 137 155 120 56 93 106 136 155 143 163 143 148 176 179 176 193 156 223 268 334 344 267 257 319 335 329 320
127 121 113 99 72 58 59 63 6 50 89 113 29 67 50 64 121 125 84 132 121 144 113 143 126 134 133 149 196 327 210 194 186 196 236 165 140 139 121 62 295 318 321 324
133 124 117 97 74 71 85 89 2 68 90 66 55 48 30 56 60 99 117 111 137 102 105 136 118 127 145 170 222 193 246 180 219 300 290 241 181 178 134 123 307 298 316 335
134 127 118 99 86 80 78 70 5 75 105 99 66 7 50 38 63 65 81 120 90 107 82 86 110 119 170 197 220 207 210 164 202 252 279 241 213 195 155 59 8 351 50 10
135 131 118 100 97 98 83 73 40 57 102 126 119 104 16 81 91 85 89 97 98 87 88 86 118 120 142 113 138 242 194 219 222 257 263 206 197 162 131 74 62 73 48 18
139 132 122 117 100 69 71 74 20 24 63 104 101 8 43 77 95 91 89 82 70 76 107 111 130 239 163 186 223 250 212 201 197 259 177 128 131 123 105 93 88 87 59 37
137 132 124 108 77 63 64 98 152 59 68 88 100 91 43 106 99 65 71 53 81 90 102 126 154 211 166 201 235 237 213 204 193 197 121 119 162 178 98 100 92 81 68 31
136 125 111 98 92 95 43 20 67 56 88 65 102 95 105 10 97 91 32 92 76 40 111 130 174 128 182 250 252 273 155 124 104 102 64 100 118 95 72 65 48 46 42 17
121 119 109 67 37 54 93 111 72 58 81 102 93 135 147 96 83 98 72 77 140 320 186 205 147 192 224 229 305 113 160 167 139 106 99 107 102 86 49 35 28 31 20 11
131 98 70 78 50 122 53 26 32 25 5 46 89 113 111 107 85 90 108 38 124 185 236 138 213 247 103 79 80 94 91 95 120 121 127 124 281 352 30 36 25 35 12 357
79 82 77 113 140 54 44 73 68 20 60 59 83 114 121 61 130 135 162 157 153 219 212 187 225 249 145 128 99 78 79 84 80 92 92 70 66 53 23 24 32 25 18 13
145 111 97 107 57 56 78 49 66 123 154 166 147 166 106 131 120 109 157 151 171 236 156 213 251 203 151 136 121 100 91 93 90 90 92 80 68 56 52 38 31 27 19 17
86 62 92 118 38 96 170 175 179 192 177 170 157 123 131 113 93 103 128 170 210 140 198 237 238 162 157 144 131 110 99 100 102 99 93 86 74 59 58 51 32 30 31 17
95 143 144 171 172 212 184 172 171 198 158 153 144 124 132 126 145 146 172 191 147 194 232 241 193 173 156 145 138 128 118 109 106 102 101 97 94 80 63 50 32 36 33 12
109 119 138 181 169 132 154 110 117 104 151 148 123 89 127 131 150 187 125 174 209 217 236 216 168 154 150 148 144 139 132 121 115 118 118 110 103 103 86 56 49 61 50 41
97 88 106 157 113 113 105 113 111 138 145 118 88 129 157 181 161 165 198 170 219 238 210 152 139 144 146 145 144 139 134 128 124 127 128 124 116 111 106 90 86 69 58 51
71 89 89 97 110 139 129 144 157 147 160 159 143 180 189 142 175 194 182 212 214 158 135 146 147 151 148 140 135 135 134 137 136 127 125 135 140 132 122 126 152 99 122 65